Location: Mason Neck State Park
(38.6428°N, 77.1981°W)
Time: 11:52:00
(UTC-04:00)

Cosmos 2278 Rocket - Visible Passes

Search period start: 23 July 2014 00:00
Search period end: 02 August 2014 00:00
Orbit: 840 x 847 km, 71.0° (Epoch: 22 July)

Date Brightness Start Highest point End Pass type
(mag) Time Alt. Az. Time Alt. Az. Time Alt. Az.
23 Jul 4.6 03:40:14 10° SE 03:43:05 14° E 03:45:57 10° ENE visible
23 Jul 2.3 05:20:50 10° SSW 05:26:27 71° WNW 05:32:08 10° NNE visible
24 Jul 4.6 03:26:02 10° SE 03:28:40 14° E 03:31:18 10° ENE visible
24 Jul 2.2 05:06:22 10° SSW 05:12:00 74° WNW 05:17:42 10° NNE visible
25 Jul 4.6 03:11:52 10° ESE 03:14:15 13° E 03:16:38 10° ENE visible
25 Jul 2.2 04:52:41 14° SSW 04:57:33 77° WNW 05:03:15 10° NNE visible
26 Jul 4.6 02:57:44 10° ESE 02:59:50 12° E 03:01:56 10° ENE visible
26 Jul 2.2 04:39:00 20° SSW 04:43:06 81° WNW 04:48:48 10° NNE visible
27 Jul 4.6 02:43:40 10° ESE 02:45:25 11° E 02:47:10 10° ENE visible
27 Jul 2.2 04:25:16 26° SSW 04:28:39 84° WNW 04:34:21 10° NNE visible
28 Jul 4.6 02:29:41 10° ESE 02:31:00 11° E 02:32:18 10° E visible
28 Jul 2.1 04:11:29 33° SSW 04:14:12 87° WNW 04:19:54 10° NNE visible
29 Jul 4.6 02:16:01 10° ESE 02:16:35 10° E 02:17:09 10° E visible
29 Jul 2.1 03:57:40 41° SSW 03:59:45 89° ESE 04:05:27 10° NNE visible
30 Jul 2.1 03:43:48 52° SSW 03:45:18 86° ESE 03:51:00 10° NNE visible
30 Jul 4.2 05:27:05 10° W 05:30:08 15° NW 05:33:12 10° NNW visible
31 Jul 2.1 03:29:54 63° S 03:30:51 83° ESE 03:36:32 10° NNE visible
31 Jul 4.1 05:12:27 10° W 05:15:39 15° NW 05:18:52 10° NNW visible
01 Aug 2.1 03:15:58 74° SSE 03:16:24 79° ESE 03:22:05 10° NNE visible
01 Aug 4.1 04:57:50 10° W 05:01:10 16° NW 05:04:31 10° NNW visible
